KU9TRY Weather Reports


Display with metric or nautical units.
time (UTC)temp
F
wind
direction
speed
MPH
gust
MPH
rain 1hr
in
rain 24hr
in
rain mn
in
humidity
%
barometer
mb
20260509053421 48 271 0.0 0.0 0.00 0.00 0.00 92 1012.2
20260509052918 49 271 0.0 0.0 0.00 0.00 0.00 90 1012.0
20260509052415 49 271 0.0 0.0 0.00 0.00 0.00 92 1012.1
20260509051913 49 271 0.0 0.0 0.00 0.00 0.00 90 1011.9
20260509051411 49 271 0.0 0.0 0.00 0.00 0.00 91 1012.0
20260509050907 49 271 0.0 0.0 0.00 0.00 0.00 89 1012.1
20260509050404 49 271 0.0 0.0 0.00 0.00 0.00 89 1011.9
20260509045901 49 271 0.0 0.0 0.00 0.00 0.00 88 1011.9
20260509045358 49 271 0.0 0.0 0.00 0.00 0.00 89 1011.9
20260509044855 49 271 0.0 0.0 0.00 0.00 0.00 88 1011.9
20260509044353 49 271 0.0 0.0 0.00 0.00 0.00 88 1011.9
20260509043849 49 271 0.0 0.0 0.00 0.00 0.00 88 1011.7
20260509043345 49 271 0.0 0.0 0.00 0.00 0.00 88 1012.0
20260509042841 50 271 0.0 0.0 0.00 0.00 0.00 87 1012.1
20260509042337 50 271 0.0 0.0 0.00 0.00 0.00 86 1012.1
20260509041834 50 271 0.0 0.0 0.00 0.00 0.00 86 1012.0
20260509041331 50 271 0.0 0.0 0.00 0.00 0.00 86 1012.2
20260509040829 50 270 0.0 0.0 0.00 0.00 0.00 85 1012.2
20260509040327 50 270 0.0 0.0 0.00 0.00 0.00 85 1012.1
20260509035823 50 270 0.0 0.0 0.00 0.00 0.00 85 1012.1
20260509035321 51 270 0.0 0.0 0.00 0.00 0.00 84 1012.4
20260509034817 51 270 0.0 0.0 0.00 0.00 0.00 83 1012.2
20260509034315 51 270 0.0 0.0 0.00 0.00 0.00 83 1012.4
20260509033811 51 270 0.0 0.0 0.00 0.00 0.00 84 1012.4
20260509033309 51 270 0.0 0.0 0.00 0.00 0.00 84 1012.2
20260509032805 51 270 0.0 0.0 0.00 0.00 0.00 84 1012.4
20260509032306 51 270 0.0 0.0 0.00 0.00 0.00 83 1012.4
20260509031800 51 270 0.0 0.0 0.00 0.00 0.00 83 1012.3
20260509031257 51 270 0.0 0.0 0.00 0.00 0.00 82 1012.5
20260509030755 51 270 0.0 0.0 0.00 0.00 0.00 81 1012.6
20260509030252 52 270 0.0 0.0 0.00 0.00 0.00 80 1012.4
20260509025749 52 270 0.0 0.0 0.00 0.00 0.00 79 1012.4
20260509025245 52 270 0.0 0.0 0.00 0.00 0.00 80 1012.3
20260509024740 53 270 0.0 0.0 0.00 0.00 0.00 79 1012.3
20260509024237 53 270 0.0 0.0 0.00 0.00 0.00 79 1012.6
20260509023734 53 270 0.0 0.0 0.00 0.00 0.00 77 1012.5
20260509023231 53 270 0.0 0.0 0.00 0.00 0.00 76 1012.6
20260509022727 54 270 0.0 0.0 0.00 0.00 0.00 75 1012.4
20260509022225 54 270 0.0 0.0 0.00 0.00 0.00 74 1012.3
20260509021722 55 270 0.0 0.0 0.00 0.00 0.00 72 1012.4
20260509021219 55 270 0.0 0.0 0.00 0.00 0.00 71 1012.5
20260509020717 55 270 0.0 0.0 0.00 0.00 0.00 70 1012.3
20260509020214 55 270 0.0 0.0 0.00 0.00 0.00 70 1012.3
20260509015712 55 270 0.0 0.0 0.00 0.00 0.00 67 1012.2
20260509015210 56 270 0.0 0.0 0.00 0.00 0.00 69 1012.1
20260509014706 56 270 0.0 0.0 0.00 0.00 0.00 69 1012.3
20260509014203 56 270 0.0 0.0 0.00 0.00 0.00 68 1012.2
20260509013659 56 270 0.0 0.0 0.00 0.00 0.00 69 1011.9
20260509013155 56 270 0.0 0.0 0.00 0.00 0.00 68 1012.0
20260509012652 57 270 0.0 0.0 0.00 0.00 0.00 68 1012.0
20260509012149 57 270 0.0 0.0 0.00 0.00 0.00 65 1011.8
20260509011647 57 270 0.0 0.0 0.00 0.00 0.00 63 1011.9
20260509011144 58 270 0.0 0.0 0.00 0.00 0.00 64 1011.9
20260509010641 59 270 0.0 0.0 0.00 0.00 0.00 61 1011.9
20260509010137 59 270 0.0 0.0 0.00 0.00 0.00 62 1011.8
20260509005635 60 270 0.0 0.0 0.00 0.00 0.00 62 1012.0
20260509005132 61 270 0.0 0.0 0.00 0.00 0.00 59 1012.1
20260509004627 61 270 0.0 0.0 0.00 0.00 0.00 61 1012.0
20260509004124 62 269 0.0 0.0 0.00 0.00 0.00 58 1012.0
20260509003623 63 268 0.0 0.0 0.00 0.00 0.00 58 1012.2
20260509003120 64 268 0.0 0.0 0.00 0.00 0.00 54 1011.8
20260509002617 65 266 1.0 1.0 0.00 0.00 0.00 51 1011.8
20260509002114 65 266 2.0 2.0 0.00 0.00 0.00 49 1012.0
20260509001612 65 266 2.0 2.0 0.00 0.00 0.00 47 1012.0
20260509001107 65 266 1.0 1.0 0.00 0.00 0.00 46 1012.0
20260509000606 66 265 2.0 2.0 0.00 0.00 0.00 46 1011.9
20260508235600 66 266 2.0 2.0 0.00 0.00 0.00 45 1012.0
20260508235056 66 266 2.0 1.0 0.00 0.00 0.00 44 1011.9
20260508234554 67 265 2.0 2.0 0.00 0.00 0.00 45 1012.0
20260508234050 67 266 2.0 1.0 0.00 0.00 0.00 43 1012.0
20260508233549 67 266 2.0 2.0 0.00 0.00 0.00 43 1012.0
20260508233047 67 267 1.0 1.0 0.00 0.00 0.00 44 1011.9
20260508232543 67 267 1.0 1.0 0.00 0.00 0.00 43 1012.1
20260508232040 67 268 1.0 1.0 0.00 0.00 0.00 40 1012.1
20260508231538 67 268 1.0 1.0 0.00 0.00 0.00 41 1012.0
20260508231035 67 268 1.0 1.0 0.00 0.00 0.00 43 1012.2
20260508230531 68 268 1.0 1.0 0.00 0.00 0.00 41 1012.0
20260508230028 68 270 1.0 1.0 0.00 0.00 0.00 41 1012.1
20260508225525 68 270 0.0 0.0 0.00 0.00 0.00 37 1011.9
20260508225022 68 270 1.0 1.0 0.00 0.00 0.00 37 1012.0
20260508224520 68 280 1.0 0.0 0.00 0.00 0.00 37 1012.0
20260508224017 68 279 1.0 2.0 0.00 0.00 0.00 41 1012.1
20260508223515 68 287 1.0 1.0 0.00 0.00 0.00 36 1012.1
20260508223012 69 302 0.0 1.0 0.00 0.00 0.00 40 1012.0
20260508222509 69 288 1.0 1.0 0.00 0.00 0.00 36 1012.2
20260508222005 70 276 0.0 0.0 0.00 0.00 0.00 35 1012.2
20260508221502 70 278 1.0 2.0 0.00 0.00 0.00 30 1012.2
20260508220958 70 282 1.0 1.0 0.00 0.00 0.00 33 1012.4
20260508220454 69 281 1.0 1.0 0.00 0.00 0.00 35 1012.4
20260508215950 69 276 1.0 1.0 0.00 0.00 0.00 38 1012.5
20260508215448 70 291 2.0 2.0 0.00 0.00 0.00 38 1012.4
20260508214944 71 292 1.0 1.0 0.00 0.00 0.00 35 1012.6
20260508214442 71 271 1.0 1.0 0.00 0.00 0.00 34 1012.5
20260508213938 71 282 0.0 0.0 0.00 0.00 0.00 33 1012.5
20260508213436 71 311 1.0 1.0 0.00 0.00 0.00 32 1012.5
20260508212931 71 304 1.0 1.0 0.00 0.00 0.00 32 1012.4
20260508212428 71 259 2.0 2.0 0.00 0.00 0.00 29 1012.4
20260508211924 72 285 0.0 0.0 0.00 0.00 0.00 33 1012.2
20260508211420 72 275 0.0 0.0 0.00 0.00 0.00 32 1012.3
20260508210917 71 287 0.0 1.0 0.00 0.00 0.00 32 1012.3
20260508210414 71 335 1.0 2.0 0.00 0.00 0.00 31 1012.4
20260508205910 72 277 2.0 1.0 0.00 0.00 0.00 39 1012.6
20260508205407 72 285 1.0 1.0 0.00 0.00 0.00 34 1012.5
20260508204903 72 286 1.0 1.0 0.00 0.00 0.00 30 1012.7
20260508204401 72 308 0.0 0.0 0.00 0.00 0.00 32 1012.6
20260508203856 72 260 2.0 2.0 0.00 0.00 0.00 40 1012.6
20260508203352 72 183 4.0 4.0 0.00 0.00 0.00 30 1012.7
20260508202848 72 263 0.0 0.0 0.00 0.00 0.00 34 1012.8
20260508202346 72 144 4.0 4.0 0.00 0.00 0.00 37 1013.0
20260508201843 72 272 0.0 0.0 0.00 0.00 0.00 32 1013.1
20260508201340 72 181 4.0 4.0 0.00 0.00 0.00 30 1013.0
20260508200836 72 309 0.0 0.0 0.00 0.00 0.00 33 1013.1
20260508200333 72 123 5.0 6.0 0.00 0.00 0.00 28 1013.3
20260508195828 72 66 0.0 0.0 0.00 0.00 0.00 29 1013.4
20260508195326 72 275 2.0 1.0 0.00 0.00 0.00 28 1013.4
20260508194822 72 95 4.0 4.0 0.00 0.00 0.00 31 1013.4
20260508194319 72 182 4.0 4.0 0.00 0.00 0.00 28 1013.4
20260508193816 71 257 2.0 2.0 0.00 0.00 0.00 40 1013.3
20260508193313 71 338 1.0 1.0 0.00 0.00 0.00 28 1013.6
20260508192809 71 236 2.0 2.0 0.00 0.00 0.00 28 1013.6
20260508192306 70 333 0.0 0.0 0.00 0.00 0.00 29 1013.8
20260508191803 70 338 3.0 4.0 0.00 0.00 0.00 28 1013.7
20260508191300 71 223 2.0 4.0 0.00 0.00 0.00 30 1014.0
20260508190758 70 344 2.0 2.0 0.00 0.00 0.00 32 1014.0
20260508190253 71 312 2.0 2.0 0.00 0.00 0.00 28 1014.3
20260508185750 71 276 1.0 1.0 0.00 0.00 0.00 29 1014.4
20260508185248 71 101 2.0 2.0 0.00 0.00 0.00 27 1014.4
20260508184745 71 283 1.0 1.0 0.00 0.00 0.00 28 1014.7
20260508184242 71 347 1.0 1.0 0.00 0.00 0.00 32 1014.6
20260508183739 70 358 2.0 2.0 0.00 0.00 0.00 29 1014.9
20260508183235 71 323 3.0 3.0 0.00 0.00 0.00 26 1014.9
20260508182731 70 313 2.0 2.0 0.00 0.00 0.00 32 1014.8
20260508182228 70 282 1.0 1.0 0.00 0.00 0.00 31 1015.3
20260508181724 70 121 1.0 1.0 0.00 0.00 0.00 34 1015.0
20260508181221 70 293 1.0 1.0 0.00 0.00 0.00 27 1015.4
20260508180717 69 287 1.0 1.0 0.00 0.00 0.00 29 1015.3
20260508180214 69 1 2.0 2.0 0.00 0.00 0.00 33 1015.6
20260508175711 69 289 0.0 0.0 0.00 0.00 0.00 29 1015.6
20260508175208 69 328 0.0 0.0 0.00 0.00 0.00 30 1015.8
20260508174706 70 203 5.0 6.0 0.00 0.00 0.00 28 1015.7
20260508174202 69 158 3.0 4.0 0.00 0.00 0.00 30 1015.7
20260508173659 69 19 1.0 1.0 0.00 0.00 0.00 32 1015.6
20260508173154 69 268 1.0 1.0 0.00 0.00 0.00 31 1015.8
20260508172652 69 193 6.0 7.0 0.00 0.00 0.00 30 1016.0
20260508172149 69 319 1.0 2.0 0.00 0.00 0.00 34 1016.0
20260508171645 69 348 2.0 3.0 0.00 0.00 0.00 36 1016.0
20260508171141 69 292 1.0 1.0 0.00 0.00 0.00 31 1016.1
20260508170639 69 312 0.0 1.0 0.00 0.00 0.00 32 1016.2
20260508170136 68 265 1.0 1.0 0.00 0.00 0.00 33 1016.3
20260508165633 68 113 4.0 6.0 0.00 0.00 0.00 32 1016.5
20260508165130 68 328 2.0 2.0 0.00 0.00 0.00 32 1016.4
20260508164626 68 199 4.0 4.0 0.00 0.00 0.00 31 1016.7
20260508164124 68 288 1.0 1.0 0.00 0.00 0.00 34 1016.7
20260508163621 67 238 4.0 4.0 0.00 0.00 0.00 32 1016.8
20260508163118 68 33 3.0 3.0 0.00 0.00 0.00 33 1017.0
20260508162614 68 99 2.0 3.0 0.00 0.00 0.00 37 1017.1
20260508162112 68 335 1.0 1.0 0.00 0.00 0.00 37 1017.4
20260508161608 68 147 2.0 4.0 0.00 0.00 0.00 39 1017.4
20260508161106 67 279 1.0 1.0 0.00 0.00 0.00 39 1017.4
20260508160604 67 10 3.0 3.0 0.00 0.00 0.00 38 1017.6
20260508160101 66 285 0.0 0.0 0.00 0.00 0.00 38 1017.6
20260508155558 66 19 2.0 2.0 0.00 0.00 0.00 37 1017.9
20260508155055 66 132 3.0 4.0 0.00 0.00 0.00 35 1017.7
20260508154552 66 263 2.0 2.0 0.00 0.00 0.00 35 1017.8
20260508154049 66 110 3.0 3.0 0.00 0.00 0.00 35 1017.7
20260508153545 66 20 1.0 2.0 0.00 0.00 0.00 36 1017.9
20260508153042 66 5 2.0 2.0 0.00 0.00 0.00 39 1018.0
20260508152540 66 15 1.0 1.0 0.00 0.00 0.00 38 1017.9
20260508152034 66 266 2.0 2.0 0.00 0.00 0.00 35 1018.1
20260508151531 65 336 2.0 2.0 0.00 0.00 0.00 35 1018.1
20260508151028 65 118 5.0 6.0 0.00 0.00 0.00 36 1018.2
20260508150526 65 334 0.0 0.0 0.00 0.00 0.00 41 1018.3
20260508150021 64 220 3.0 3.0 0.00 0.00 0.00 44 1018.2
20260508145518 64 243 2.0 2.0 0.00 0.00 0.00 40 1018.1
20260508145014 64 279 1.0 1.0 0.00 0.00 0.00 45 1018.3
20260508144512 64 256 2.0 2.0 0.00 0.00 0.00 43 1018.3
20260508144009 63 343 1.0 1.0 0.00 0.00 0.00 47 1018.3
20260508143507 63 331 1.0 1.0 0.00 0.00 0.00 51 1018.2
20260508143003 63 320 1.0 1.0 0.00 0.00 0.00 59 1018.4
20260508142500 61 301 1.0 1.0 0.00 0.00 0.00 59 1018.6
20260508141956 60 350 1.0 1.0 0.00 0.00 0.00 63 1018.5
20260508141453 60 332 1.0 1.0 0.00 0.00 0.00 66 1018.6
20260508140951 59 325 0.0 1.0 0.00 0.00 0.00 67 1018.7
20260508140448 57 336 1.0 2.0 0.00 0.00 0.00 68 1018.7
20260508135943 56 345 2.0 2.0 0.00 0.00 0.00 72 1018.6
20260508135440 56 339 0.0 0.0 0.00 0.00 0.00 77 1018.7
20260508134937 54 337 1.0 1.0 0.00 0.00 0.00 78 1018.9
20260508134433 53 335 1.0 1.0 0.00 0.00 0.00 78 1018.6
20260508133930 53 336 1.0 1.0 0.00 0.00 0.00 82 1018.6
20260508133428 52 341 1.0 2.0 0.00 0.00 0.00 84 1018.8
20260508132924 51 339 1.0 1.0 0.00 0.00 0.00 84 1018.7
20260508132422 50 339 1.0 1.0 0.00 0.00 0.00 84 1018.7
20260508131919 50 335 1.0 1.0 0.00 0.00 0.00 86 1018.8
20260508131414 49 332 0.0 0.0 0.00 0.00 0.00 86 1018.7
20260508130911 49 332 0.0 0.0 0.00 0.00 0.00 89 1018.7
20260508130408 48 331 0.0 0.0 0.00 0.00 0.00 88 1018.6
20260508125904 47 332 0.0 0.0 0.00 0.00 0.00 90 1018.6
20260508125400 46 331 0.0 1.0 0.00 0.00 0.00 91 1018.5
20260508124858 46 331 0.0 0.0 0.00 0.00 0.00 93 1018.7
20260508124355 45 331 0.0 0.0 0.00 0.00 0.00 94 1018.5
20260508123853 45 331 0.0 1.0 0.00 0.00 0.00 93 1018.6
20260508123352 44 330 1.0 1.0 0.00 0.00 0.00 94 1018.8
20260508122847 44 330 0.0 0.0 0.00 0.00 0.00 96 1018.7
20260508122344 43 333 1.0 1.0 0.00 0.00 0.00 95 1018.6
20260508121841 42 318 0.0 0.0 0.00 0.00 0.00 97 1018.7
20260508121340 42 281 0.0 0.0 0.00 0.00 0.00 97 1018.7
20260508120837 41 281 0.0 0.0 0.00 0.00 0.00 97 1018.7
20260508120335 41 280 0.0 0.0 0.00 0.00 0.00 98 1018.6
20260508115832 40 278 0.0 0.0 0.00 0.00 0.00 98 1018.6
20260508115330 39 278 0.0 0.0 0.00 0.00 0.00 98 1018.6
20260508114826 39 278 0.0 0.0 0.00 0.00 0.00 98 1018.4
20260508114323 39 277 0.0 0.0 0.00 0.00 0.00 98 1018.5
20260508113820 39 277 0.0 0.0 0.00 0.00 0.00 98 1018.2
20260508113318 38 277 0.0 0.0 0.00 0.00 0.00 98 1018.2
20260508112814 38 277 0.0 0.0 0.00 0.00 0.00 98 1018.1
20260508112311 38 277 0.0 0.0 0.00 0.00 0.00 98 1017.9
20260508111807 37 275 0.0 0.0 0.00 0.00 0.00 98 1017.9
20260508111305 37 274 0.0 0.0 0.00 0.00 0.00 98 1017.7
20260508110802 37 273 0.0 0.0 0.00 0.00 0.00 98 1018.0
20260508110300 37 273 0.0 0.0 0.00 0.00 0.00 98 1017.8
20260508105759 37 273 0.0 0.0 0.00 0.00 0.00 98 1017.6
20260508105256 37 273 0.0 0.0 0.00 0.00 0.00 98 1017.6
20260508104753 37 273 0.0 0.0 0.00 0.00 0.00 98 1017.7
20260508104250 37 273 0.0 0.0 0.00 0.00 0.00 98 1017.6
20260508103748 37 273 0.0 0.0 0.00 0.00 0.00 98 1017.5
20260508103244 37 273 0.0 0.0 0.00 0.00 0.00 98 1017.9
20260508102741 37 273 0.0 0.0 0.00 0.00 0.00 98 1017.5
20260508102240 37 273 0.0 0.0 0.00 0.00 0.00 98 1017.6
20260508101737 38 273 0.0 0.0 0.00 0.00 0.00 98 1017.4
20260508101234 38 272 0.0 0.0 0.00 0.00 0.00 98 1017.2
20260508100732 38 272 0.0 0.0 0.00 0.00 0.00 98 1017.4
20260508100229 38 272 0.0 0.0 0.00 0.00 0.00 98 1017.1
20260508095725 38 272 0.0 0.0 0.00 0.00 0.00 98 1017.1
20260508095223 38 272 0.0 0.0 0.00 0.00 0.00 98 1017.1
20260508094719 38 272 0.0 0.0 0.00 0.00 0.00 98 1017.4
20260508094216 38 272 0.0 0.0 0.00 0.00 0.00 98 1017.2
20260508093714 39 272 0.0 0.0 0.00 0.00 0.00 98 1017.1
20260508093212 39 272 0.0 0.0 0.00 0.00 0.00 98 1017.0
20260508092708 39 272 0.0 0.0 0.00 0.00 0.00 98 1017.0
20260508092207 38 272 0.0 0.0 0.00 0.00 0.00 98 1017.0
20260508091704 39 272 0.0 0.0 0.00 0.00 0.00 98 1017.0
20260508091201 39 272 0.0 0.0 0.00 0.00 0.00 98 1016.7
20260508090659 39 272 0.0 0.0 0.00 0.00 0.00 98 1016.9
20260508090156 39 272 0.0 0.0 0.00 0.00 0.00 98 1016.9
20260508085651 39 272 0.0 0.0 0.00 0.00 0.00 97 1016.9
20260508085149 39 272 0.0 0.0 0.00 0.00 0.00 98 1016.9
20260508084645 39 272 0.0 0.0 0.00 0.00 0.00 97 1016.9
20260508084143 40 272 0.0 0.0 0.00 0.00 0.00 98 1016.8
20260508083640 40 272 0.0 0.0 0.00 0.00 0.00 98 1016.7
20260508083138 40 272 0.0 0.0 0.00 0.00 0.00 97 1016.6
20260508082632 40 272 0.0 0.0 0.00 0.00 0.00 97 1016.8
20260508082130 40 272 0.0 0.0 0.00 0.00 0.00 97 1016.9
20260508081627 40 272 0.0 0.0 0.00 0.00 0.00 97 1016.9
20260508081124 40 272 0.0 0.0 0.00 0.00 0.00 97 1016.9
20260508080621 40 272 0.0 0.0 0.00 0.00 0.00 97 1017.0
20260508080119 41 272 0.0 0.0 0.00 0.00 0.00 97 1017.0
20260508075615 41 272 0.0 0.0 0.00 0.00 0.00 97 1017.1
20260508075112 41 272 0.0 0.0 0.00 0.00 0.00 97 1016.9
20260508074610 41 272 0.0 0.0 0.00 0.00 0.00 97 1016.9
20260508074107 41 272 0.0 0.0 0.00 0.00 0.00 97 1017.0
20260508073604 41 272 0.0 0.0 0.00 0.00 0.00 97 1017.0
20260508073102 42 272 0.0 0.0 0.00 0.00 0.00 97 1016.9
20260508072557 41 272 0.0 0.0 0.00 0.00 0.00 97 1017.0
20260508072054 41 272 0.0 0.0 0.00 0.00 0.00 97 1017.0
20260508071552 41 272 0.0 0.0 0.00 0.00 0.00 97 1016.8
20260508071050 41 272 0.0 0.0 0.00 0.00 0.00 97 1017.0
20260508070547 41 272 0.0 0.0 0.00 0.00 0.00 97 1017.0
20260508070046 41 272 0.0 0.0 0.00 0.00 0.00 97 1017.0
20260508065542 41 272 0.0 0.0 0.00 0.00 0.00 97 1016.9
20260508065041 41 272 0.0 0.0 0.00 0.00 0.00 97 1017.0
20260508064538 42 272 0.0 0.0 0.00 0.00 0.00 97 1017.2
20260508064036 42 272 0.0 0.0 0.00 0.00 0.00 97 1017.4
20260508063533 42 272 0.0 0.0 0.00 0.00 0.00 97 1017.0
20260508063031 42 272 0.0 0.0 0.00 0.00 0.00 97 1017.1
20260508062528 43 272 0.0 0.0 0.00 0.00 0.00 97 1017.4
20260508062025 42 272 0.0 0.0 0.00 0.00 0.00 97 1017.2
20260508061523 42 272 0.0 0.0 0.00 0.00 0.00 97 1017.4
20260508061019 42 272 0.0 0.0 0.00 0.00 0.00 97 1017.5
20260508060516 43 272 0.0 0.0 0.00 0.00 0.00 97 1017.5
20260508060014 43 272 0.0 0.0 0.00 0.00 0.00 97 1017.5
20260508055509 43 272 0.0 0.0 0.00 0.00 0.00 96 1017.4
20260508055006 42 272 0.0 0.0 0.00 0.00 0.00 96 1017.8
20260508054503 42 272 0.0 0.0 0.00 0.00 0.00 96 1017.4
20260508054000 43 272 0.0 0.0 0.00 0.00 0.00 96 1017.6